NJE9D ENTC-EKYT

Flight info

Callsign NJE9D
Flight time N/A
Altitude 38000
Route AMIMO DCT SOMUB DCT ARTOR P615 AAL
Aircraft CL60/M-SBDE1E2E3FGHIJ1J4J5J7M3RWXYZ/LB1V1D1

Departure

Time N/A
Airport Tromsø Airport (ENTC)

Arrival

Time 2026-04-30 18:00
Airport Aalborg Airport (EKYT)
Time Latitude Longitude Altitude Speed Heading
2026-04-30 17:39 58.45261 10.18625 30150 ft 434 kts 190°
2026-04-30 17:41 58.21765 10.13580 24436 ft 406 kts 185°
2026-04-30 17:42 58.16168 10.12928 23201 ft 397 kts 185°
2026-04-30 17:42 58.08047 10.11960 21329 ft 386 kts 185°
2026-04-30 17:43 58.02757 10.11319 20084 ft 380 kts 185°
2026-04-30 17:44 57.94949 10.10362 18215 ft 370 kts 184°
2026-04-30 17:44 57.87461 10.09446 16503 ft 358 kts 183°
2026-04-30 17:46 57.75627 10.11840 14466 ft 318 kts 173°
2026-04-30 17:47 57.66925 10.13731 13494 ft 314 kts 173°
2026-04-30 17:48 57.58267 10.15550 13027 ft 313 kts 173°
2026-04-30 17:48 57.51774 10.16891 11517 ft 309 kts 173°
2026-04-30 17:49 57.43467 10.18582 9142 ft 296 kts 173°
2026-04-30 17:50 57.35420 10.20204 6759 ft 285 kts 174°
2026-04-30 17:51 57.29623 10.21365 5185 ft 265 kts 175°
2026-04-30 17:52 57.24459 10.22393 4119 ft 237 kts 175°
2026-04-30 17:53 57.16985 10.22132 2961 ft 188 kts 198°
2026-04-30 17:54 57.12391 10.18898 2058 ft 175 kts 238°
2026-04-30 17:55 57.11085 10.10569 1996 ft 172 kts 264°
2026-04-30 17:56 57.10578 10.02392 1628 ft 151 kts 265°
2026-04-30 17:57 57.10265 9.97424 1061 ft 121 kts 264°
2026-04-30 17:58 57.09970 9.92822 604 ft 121 kts 263°
2026-04-30 17:59 57.09587 9.86679 17 ft 110 kts 264°
2026-04-30 18:00 57.09392 9.84305 14 ft 9 kts 152°
2026-04-30 18:00 57.09262 9.84627 14 ft 13 kts 85°
2026-04-30 18:01 57.09288 9.85054 14 ft 19 kts 83°
2026-04-30 18:02 57.09338 9.85835 15 ft 11 kts 83°
2026-04-30 18:02 57.09080 9.86252 15 ft 22 kts 142°
2026-04-30 18:03 57.08674 9.86846 14 ft 12 kts 138°
2026-04-30 18:04 57.08593 9.86801 14 ft 5 kts 122°
2026-04-30 18:05 57.08569 9.86836 14 ft 0 kts 141°